星链-33721 (STARLINK-33721)

导读

STARLINK-33721是美国SpaceX星链星座的卫星,于2025年4月6日发射入轨,属于Starlink Gen2系列,主要服务全球卫星互联网,提供高速低延迟网络覆盖,填补偏远地区等地面网络盲区,星链卫星多为近地轨道运行,该星延续星座组网架构,支撑全球通信、互联网接入服务需求。

Basic Information
目录编号:
63480
目录名称:
STARLINK-33721
国际标识:
2025-070W
轨道中心:
EARTH
卫星名称:
星链-33721
卫星全名:
星链-33721 (STARLINK-33721)
卫星状态:
在轨 (已飞行516 天)
发射日期:
2025-04-06 UTC
国别 :
美国 (US)
星等 :
--
Orbit Information
数据来源 国际轨道数据
星历时间: 2026-09-03T23:20:12+0800
20小时前
查看轨道信息
半长轴: 6861.176km
偏心率: 0.0001616
轨道倾角: 43.003°
近地点辐角 264.534°
升交点赤经 331.165°
平近点角 95.533°
近地点: 481.93km
远地点: 484.148km
周期: 94.267分钟
每日圈数: 15.275837
Detailed Information
固有亮度:
5
最大亮度:
2.5
卫星平台:
Starlink V1.0
覆盖范围:
全球
运营商:
太空探索技术公司
运营商所在国:
美国
制造商(研发单位):
太空探索技术公司
制造商所在国:
美国
使用方式:
暂无
Satellite Introduction
Starlink 计划是 SpaceX 推出的全球卫星互联网项目,通过发射低轨道卫星,为全球尤其是偏远地区提供高速、低延迟的互联网服务。自 2019 年起,Starlink 已部署数千颗卫星,旨在缩小全球数字鸿沟,推动互联网普及。该项目还为军事、航空等行业提供通信支持,带来广泛经济效益。
2D Orbit Map
3D Orbit Map
Orbit Altitude Analysis Chart
Orbit Inclination Analysis Chart
Orbit Comprehensive Analysis Chart
View Comprehensive Chart
Conjunction Data List
Event ID Objects TCA Miss Dist (km) Collision Risk Probability Collision Risk Index (CRI) Action
CDM_260903-111106-348006-649622
2026-09-03T
11:11:12+0000
1.774 km
极远距离
2.598502E-6 低风险 0.43
CDM_260906-163105-773206-348021
2026-09-06T
16:31:20+0000
1.900 km
极远距离
2.195006E-6 低风险 0.42